QPF
0.00 0.00 0.00 0.00 0.00 0.00 0.00 0.00 0.00 0.00 0.00 0.00 0.00 0.00 0.00 0.00 0.00 0.00 0.00 0.00 0.00 0.00 0.00 0.00 0.00 0.00 0.00 0.00 0.00 0.00 0.00 0.00 0.00 0.00 0.00 0.01 0.02 0.05 0.14 0.15 0.07 0.03 0.03 0.00
0.00 0.00 0.00 0.00 0.00 0.00 0.00 0.00 0.00 0.00 0.00 0.00 0.00 0.00 0.00 0.00 0.00 0.00 0.00 0.00 0.00 0.00 0.00 0.00 0.00 0.00 0.00 0.00 0.00 0.00 0.00 0.00 0.00 0.00 0.00 0.01 0.03 0.03 0.07 0.09 0.05 0.03 0.03 0.01
0.00 0.00 0.00 0.00 0.00 0.00 0.00 0.00 0.00 0.00 0.00 0.00 0.00 0.00 0.00 0.00 0.00 0.00 0.00 0.00 0.00 0.00 0.00 0.00 0.00 0.00 0.00 0.00 0.01 0.00 0.00 0.00 0.00 0.00 0.00 0.02 0.05 0.05 0.07 0.10 0.04 0.02 0.01 0.00
0.00 0.00 0.00 0.00 0.00 0.00 0.00 0.00 0.00 0.00 0.00 0.00 0.00 0.00 0.00 0.00 0.00 0.00 0.00 0.00 0.00 0.00 0.00 0.00 0.00 0.00 0.00 0.00 0.00 0.01 0.01 0.01 0.00 0.00 0.01 0.01 0.03 0.02 0.03 0.05 0.03 0.01 0.01 0.01
0.00 0.00 0.00 0.00 0.00 0.00 0.00 0.00 0.00 0.00 0.00 0.00 0.00 0.00 0.00 0.00 0.00 0.00 0.00 0.00 0.00 0.00 0.00 0.00 0.00 0.00 0.00 0.00 0.01 0.01 0.02 0.02 0.02 0.03 0.02 0.00 0.02 0.02 0.02 0.04 0.02 0.01 0.00 0.00
0.00 0.00 0.00 0.00 0.00 0.00 0.00 0.00 0.00 0.00 0.00 0.00 0.00 0.00 0.00 0.00 0.00 0.00 0.00 0.00 0.00 0.00 0.00 0.00 0.00 0.00 0.00 0.01 0.02 0.02 0.02 0.03 0.04 0.02 0.04 0.00 0.01 0.02 0.02 0.03 0.03 0.01 0.01 0.00
0.00 0.00 0.00 0.00 0.00 0.00 0.00 0.00 0.00 0.00 0.00 0.00 0.00 0.00 0.00 0.00 0.00 0.00 0.00 0.00 0.00 0.00 0.01 0.01 0.00 0.00 0.01 0.02 0.02 0.04 0.03 0.02 0.03 0.01 0.02 0.01 0.02 0.01 0.01 0.02 0.02 0.01 0.01 0.00
0.00 0.00 0.00 0.00 0.00 0.00 0.00 0.00 0.00 0.00 0.00 0.00 0.00 0.00 0.00 0.00 0.00 0.00 0.00 0.00 0.00 0.01 0.03 0.05 0.03 0.01 0.01 0.03 0.06 0.08 0.05 0.04 0.04 0.00 0.01 0.03 0.03 0.08 0.03 0.02 0.01 0.00 0.00 0.00
0.00 0.00 0.00 0.00 0.00 0.00 0.00 0.00 0.00 0.00 0.00 0.00 0.00 0.00 0.00 0.00 0.00 0.00 0.01 0.01 0.00 0.01 0.02 0.04 0.06 0.02 0.00 0.05 0.13 0.12 0.10 0.06 0.04 0.00 0.00 0.01 0.03 0.04 0.10 0.05 0.02 0.00 0.00 0.00
0.00 0.00 0.00 0.00 0.00 0.00 0.00 0.00 0.00 0.00 0.00 0.00 0.00 0.00 0.00 0.00 0.00 0.00 0.00 0.00 0.00 0.00 0.00 0.00 0.00 0.00 0.01 0.09 0.16 0.21 0.23 0.13 0.05 0.00 0.00 0.00 0.01 0.02 0.06 0.14 0.04 0.00 0.00 0.00
0.00 0.00 0.00 0.00 0.00 0.00 0.00 0.00 0.00 0.00 0.00 0.00 0.00 0.00 0.00 0.00 0.00 0.00 0.00 0.00 0.00 0.00 0.00 0.00 0.00 0.00 0.05 0.10 0.13 0.13 0.10 0.05 0.02 0.01 0.00 0.00 0.00 0.01 0.05 0.09 0.09 0.02 0.04 0.03
0.00 0.00 0.00 0.00 0.00 0.00 0.00 0.00 0.00 0.00 0.00 0.00 0.00 0.00 0.00 0.00 0.00 0.00 0.00 0.00 0.00 0.00 0.00 0.00 0.02 0.09 0.10 0.08 0.08 0.04 0.02 0.01 0.01 0.01 0.00 0.00 0.01 0.02 0.03 0.06 0.07 0.09 0.08 0.09
0.00 0.00 0.00 0.00 0.00 0.00 0.00 0.00 0.00 0.00 0.00 0.00 0.00 0.00 0.00 0.00 0.00 0.00 0.00 0.00 0.00 0.00 0.01 0.02 0.06 0.09 0.05 0.04 0.04 0.03 0.04 0.02 0.01 0.01 0.01 0.01 0.00 0.00 0.02 0.04 0.03 0.05 0.07 0.09
0.00 0.00 0.00 0.00 0.00 0.00 0.00 0.00 0.00 0.00 0.00 0.00 0.00 0.00 0.00 0.00 0.00 0.00 0.00 0.00 0.00 0.00 0.01 0.03 0.03 0.04 0.04 0.06 0.08 0.06 0.05 0.02 0.00 0.00 0.00 0.00 0.00 0.00 0.01 0.01 0.00 0.01 0.03 0.08
0.00 0.00 0.00 0.00 0.00 0.00 0.00 0.00 0.00 0.00 0.00 0.00 0.00 0.00 0.00 0.00 0.00 0.00 0.00 0.00 0.00 0.00 0.00 0.01 0.00 0.01 0.01 0.03 0.02 0.03 0.02 0.01 0.01 0.01 0.00 0.00 0.00 0.00 0.00 0.01 0.02 0.02 0.02 0.03
0.00 0.00 0.00 0.00 0.00 0.00 0.00 0.00 0.00 0.00 0.00 0.00 0.00 0.00 0.00 0.00 0.00 0.00 0.00 0.00 0.00 0.00 0.00 0.00 0.00 0.00 0.01 0.00 0.00 0.00 0.00 0.00 0.00 0.00 0.01 0.01 0.00 0.00 0.00 0.00 0.00 0.01 0.01 0.01
0.00 0.00 0.00 0.00 0.00 0.00 0.00 0.00 0.00 0.00 0.00 0.00 0.00 0.00 0.00 0.00 0.00 0.00 0.00 0.00 0.00 0.00 0.00 0.00 0.00 0.00 0.00 0.00 0.00 0.00 0.00 0.00 0.00 0.00 0.00 0.00 0.00 0.00 0.00 0.00 0.00 0.00 0.00 0.00
0.00 0.00 0.00 0.00 0.00 0.00 0.00 0.00 0.00 0.00 0.00 0.00 0.00 0.00 0.00 0.00 0.00 0.00 0.00 0.00 0.00 0.00 0.00 0.00 0.00 0.00 0.00 0.00 0.00 0.00 0.00 0.00 0.00 0.00 0.00 0.00 0.00 0.00 0.00 0.00 0.00 0.00 0.00 0.00
0.00 0.00 0.00 0.00 0.00 0.00 0.00 0.00 0.00 0.00 0.00 0.00 0.00 0.00 0.00 0.00 0.00 0.00 0.00 0.00 0.00 0.00 0.00 0.00 0.00 0.00 0.00 0.00 0.00 0.00 0.00 0.00 0.00 0.00 0.00 0.00 0.00 0.00 0.00 0.00 0.00 0.00 0.00 0.00
0.00 0.00 0.00 0.00 0.00 0.00 0.00 0.00 0.00 0.00 0.00 0.00 0.00 0.00 0.00 0.00 0.00 0.00 0.00 0.00 0.00 0.00 0.00 0.00 0.00 0.00 0.00 0.00 0.00 0.00 0.00 0.00 0.00 0.00 0.00 0.00 0.00 0.00 0.00 0.00 0.00 0.00 0.00 0.00
0.00 0.00 0.00 0.00 0.00 0.00 0.00 0.00 0.00 0.00 0.00 0.00 0.00 0.00 0.00 0.00 0.00 0.00 0.00 0.00 0.00 0.00 0.00 0.00 0.00 0.00 0.00 0.00 0.00 0.00 0.00 0.00 0.00 0.00 0.00 0.00 0.00 0.00 0.00 0.00 0.00 0.00 0.00 0.00
0.00 0.00 0.00 0.00 0.00 0.00 0.00 0.00 0.00 0.00 0.00 0.00 0.00 0.00 0.00 0.00 0.00 0.00 0.00 0.00 0.00 0.00 0.00 0.00 0.00 0.00 0.00 0.00 0.00 0.00 0.00 0.00 0.00 0.00 0.00 0.00 0.00 0.00 0.00 0.00 0.00 0.00 0.00 0.00
0.00 0.00 0.00 0.00 0.00 0.00 0.00 0.00 0.00 0.00 0.00 0.00 0.00 0.00 0.00 0.00 0.00 0.00 0.00 0.00 0.00 0.00 0.00 0.00 0.00 0.00 0.00 0.00 0.00 0.00 0.00 0.00 0.00 0.00 0.00 0.00 0.00 0.00 0.00 0.00 0.00 0.00 0.00 0.00
0.00 0.00 0.00 0.00 0.00 0.00 0.00 0.00 0.00 0.00 0.00 0.00 0.00 0.00 0.00 0.00 0.00 0.00 0.00 0.00 0.00 0.00 0.00 0.00 0.00 0.00 0.00 0.00 0.00 0.00 0.00 0.00 0.00 0.00 0.00 0.00 0.00 0.00 0.00 0.00 0.00 0.00 0.00 0.00
0.00 0.00 0.00 0.00 0.00 0.00 0.00 0.00 0.00 0.00 0.00 0.00 0.00 0.00 0.00 0.00 0.00 0.00 0.00 0.00 0.00 0.00 0.00 0.00 0.00 0.00 0.00 0.00 0.00 0.00 0.00 0.00 0.00 0.00 0.00 0.00 0.00 0.00 0.00 0.00 0.00 0.00 0.00 0.00
0.00 0.00 0.00 0.00 0.00 0.00 0.00 0.00 0.00 0.00 0.00 0.00 0.00 0.00 0.00 0.00 0.00 0.00 0.00 0.00 0.00 0.00 0.00 0.00 0.00 0.00 0.00 0.00 0.00 0.00 0.00 0.00 0.00 0.00 0.00 0.00 0.00 0.00 0.00 0.00 0.00 0.00 0.00 0.00
MSLP
1018.26 1018.96 1019.48 1019.81 1020.22 1020.21 1020.38 1020.29 1019.73 1017.89 1017.36 1017.00 1015.17 1013.43 1011.91 1011.57 1011.44 1010.70 1009.87 1009.57 1009.00 1008.70 1008.40 1008.35 1008.17 1008.27 1008.72 1009.17 1009.28 1009.58 1009.98 1010.08 1010.20 1010.51 1010.92 1011.80 1012.39 1012.38 1012.83 1012.67 1013.33 1013.45 1013.97 1014.78
1018.95 1018.96 1018.86 1019.17 1019.51 1019.70 1019.77 1019.63 1018.52 1017.47 1016.56 1016.55 1014.97 1011.60 1011.34 1010.08 1009.72 1009.27 1008.67 1008.10 1007.59 1007.42 1007.47 1007.40 1007.47 1007.42 1007.80 1007.99 1008.40 1008.66 1008.91 1009.29 1009.52 1009.69 1009.80 1009.97 1010.37 1011.50 1012.00 1012.06 1013.01 1012.81 1013.24 1014.13
1018.99 1018.44 1018.04 1018.57 1018.69 1019.01 1018.90 1018.91 1018.01 1017.58 1016.31 1015.66 1014.73 1011.88 1009.86 1008.92 1008.27 1007.83 1007.38 1006.80 1006.89 1006.38 1006.34 1006.46 1006.45 1006.43 1006.52 1006.87 1007.21 1007.55 1007.88 1008.32 1008.71 1008.85 1009.20 1009.57 1010.25 1010.39 1011.69 1011.90 1012.47 1011.94 1012.87 1013.31
1018.67 1017.87 1017.71 1017.65 1017.88 1018.09 1017.94 1017.30 1017.10 1017.18 1017.08 1016.04 1014.91 1012.97 1009.55 1008.58 1008.43 1008.03 1007.52 1006.76 1006.06 1005.95 1005.74 1005.58 1005.63 1005.42 1005.42 1005.66 1006.10 1006.43 1006.97 1007.31 1007.81 1008.00 1008.27 1008.62 1008.47 1008.75 1010.08 1010.75 1011.46 1012.06 1012.40 1012.84
1018.31 1017.68 1017.41 1017.32 1017.01 1017.13 1016.79 1016.54 1016.64 1016.60 1016.39 1015.89 1014.61 1014.76 1010.18 1009.30 1008.62 1007.99 1007.39 1006.58 1005.83 1005.22 1005.13 1004.94 1004.75 1004.46 1004.59 1004.99 1005.46 1005.83 1006.16 1006.55 1007.11 1007.34 1007.42 1007.65 1008.01 1007.83 1008.60 1009.61 1010.79 1011.80 1011.98 1012.45
1017.84 1017.48 1017.39 1016.61 1016.30 1016.22 1015.97 1016.13 1016.00 1015.83 1015.66 1015.42 1014.08 1014.01 1011.11 1010.31 1009.50 1007.96 1007.54 1006.25 1005.53 1004.92 1004.42 1004.14 1003.88 1003.96 1004.13 1004.41 1004.66 1005.10 1005.59 1006.10 1006.40 1006.93 1006.83 1006.89 1006.67 1007.65 1008.20 1008.34 1009.57 1010.71 1011.45 1012.14
1017.97 1017.23 1016.50 1016.17 1016.08 1015.72 1016.14 1016.06 1016.14 1016.11 1015.73 1014.55 1013.19 1012.95 1011.09 1010.30 1009.80 1008.52 1007.10 1005.85 1005.12 1004.45 1003.91 1003.70 1003.61 1003.71 1003.75 1003.96 1004.15 1004.52 1004.91 1005.56 1006.14 1006.38 1006.40 1006.23 1006.21 1007.09 1007.76 1007.94 1009.05 1010.37 1011.29 1011.84
1018.31 1017.17 1016.09 1015.82 1015.71 1015.50 1015.67 1015.82 1015.70 1015.66 1014.94 1013.84 1012.73 1012.28 1010.43 1010.41 1009.78 1008.59 1006.35 1005.27 1004.89 1004.55 1004.09 1003.66 1003.43 1003.33 1003.29 1003.16 1003.55 1003.81 1004.24 1004.92 1005.62 1006.02 1006.22 1006.75 1007.07 1006.55 1007.36 1007.94 1008.73 1009.53 1010.42 1011.26
1017.61 1016.69 1015.35 1015.05 1014.90 1015.21 1014.91 1014.95 1014.86 1014.58 1013.82 1013.45 1012.69 1011.07 1010.30 1010.03 1009.25 1008.32 1007.52 1006.19 1004.90 1004.21 1003.74 1003.29 1003.26 1003.04 1002.63 1002.43 1002.91 1003.20 1003.39 1004.13 1004.93 1005.28 1005.93 1006.11 1006.72 1006.55 1007.25 1007.90 1008.51 1009.15 1010.09 1010.84
1017.15 1016.68 1015.11 1014.54 1014.27 1014.38 1014.53 1014.58 1014.25 1013.86 1013.48 1013.15 1012.28 1011.82 1011.65 1010.34 1009.80 1009.19 1007.96 1006.45 1005.02 1003.83 1003.15 1002.79 1002.53 1002.18 1002.27 1002.15 1002.34 1002.73 1002.78 1003.41 1004.13 1004.89 1005.08 1005.23 1006.09 1007.29 1007.45 1008.10 1008.53 1009.18 1009.97 1010.63
1016.54 1016.67 1015.04 1014.38 1014.11 1014.07 1014.12 1013.83 1013.51 1013.39 1013.42 1013.14 1012.82 1012.62 1012.53 1011.77 1010.77 1009.96 1008.46 1006.23 1004.50 1003.33 1002.68 1002.56 1002.20 1002.50 1002.21 1002.18 1002.44 1002.52 1003.11 1003.28 1004.01 1004.71 1005.29 1005.13 1005.33 1006.52 1007.10 1007.89 1008.62 1009.07 1009.85 1010.54
1015.87 1015.97 1015.36 1014.62 1013.68 1013.53 1013.64 1013.87 1013.32 1013.18 1013.65 1013.26 1013.14 1013.08 1012.89 1011.99 1011.04 1010.39 1008.84 1006.46 1003.88 1002.60 1001.76 1001.84 1002.29 1001.90 1001.99 1002.00 1002.36 1002.70 1003.19 1003.82 1004.24 1004.52 1004.96 1005.14 1005.81 1005.77 1006.46 1007.52 1008.63 1009.47 1009.85 1010.61
1015.33 1015.50 1015.54 1014.46 1013.76 1013.67 1014.04 1014.16 1013.54 1013.26 1013.57 1014.11 1013.87 1013.84 1013.05 1012.11 1011.19 1010.12 1008.79 1006.92 1004.76 1002.82 1001.96 1001.87 1002.24 1002.19 1000.68 1002.51 1003.26 1003.80 1004.09 1004.30 1004.49 1004.35 1004.68 1005.25 1005.41 1005.62 1006.63 1007.70 1008.63 1009.47 1010.15 1010.70
1015.15 1015.56 1015.49 1015.52 1015.40 1015.16 1014.84 1014.50 1013.91 1013.61 1014.05 1014.50 1014.69 1014.37 1013.58 1012.50 1011.59 1010.52 1008.81 1007.38 1005.91 1004.55 1003.72 1003.36 1003.39 1003.07 1003.16 1003.79 1003.97 1004.07 1004.16 1004.57 1004.93 1005.43 1005.60 1006.11 1006.56 1007.00 1007.43 1008.43 1009.02 1009.82 1010.23 1010.99
1015.15 1015.77 1015.86 1015.95 1015.75 1015.28 1015.28 1015.00 1014.47 1014.27 1014.38 1014.84 1014.84 1014.45 1014.15 1013.59 1012.64 1011.67 1010.67 1008.71 1007.01 1006.32 1005.82 1004.68 1004.57 1004.29 1003.95 1004.41 1005.05 1005.09 1004.91 1005.82 1006.11 1006.68 1007.32 1007.61 1007.78 1007.90 1008.47 1008.94 1009.53 1010.21 1010.32 1010.82
1015.30 1015.89 1016.14 1016.35 1015.88 1015.40 1015.54 1015.13 1014.74 1014.47 1014.50 1014.75 1014.70 1014.69 1014.93 1014.42 1013.57 1012.63 1011.69 1010.27 1009.29 1008.37 1007.66 1007.40 1006.42 1006.70 1006.67 1006.67 1006.94 1007.04 1007.21 1007.33 1007.60 1008.41 1008.70 1008.84 1008.74 1008.90 1009.69 1010.36 1010.94 1010.97 1011.20 1011.58
1015.89 1016.41 1016.66 1016.41 1015.79 1015.57 1015.76 1015.51 1015.07 1015.16 1015.01 1014.85 1014.87 1015.31 1015.04 1014.69 1014.01 1013.35 1012.51 1011.76 1010.76 1010.00 1009.77 1009.51 1009.45 1009.23 1008.90 1008.97 1008.88 1008.78 1008.87 1008.99 1009.05 1009.26 1009.55 1009.81 1010.17 1010.49 1011.09 1011.75 1011.91 1012.21 1012.64 1012.90
1016.28 1016.78 1016.91 1016.62 1016.11 1016.07 1015.93 1015.46 1015.07 1015.22 1015.37 1015.09 1015.01 1014.87 1015.36 1015.16 1014.99 1014.44 1013.55 1013.06 1012.94 1012.22 1011.74 1011.56 1011.37 1010.91 1010.60 1010.60 1010.26 1010.07 1010.27 1010.29 1010.48 1010.83 1011.04 1011.32 1011.67 1012.07 1012.43 1012.63 1013.04 1013.38 1013.66 1014.05
1016.31 1016.69 1017.14 1017.06 1017.03 1016.55 1015.70 1015.48 1015.11 1015.23 1015.64 1015.41 1015.43 1015.15 1014.73 1015.24 1015.27 1015.01 1015.22 1014.92 1014.64 1014.32 1014.03 1013.68 1013.32 1013.08 1012.57 1012.03 1012.17 1012.06 1011.94 1011.90 1011.90 1012.21 1012.32 1012.78 1012.75 1012.86 1013.09 1013.37 1013.79 1014.21 1014.84 1015.03
1016.58 1016.80 1017.30 1017.28 1017.08 1016.60 1015.59 1015.17 1015.26 1014.68 1015.42 1015.46 1015.64 1015.72 1015.63 1015.26 1015.87 1017.24 1016.73 1016.28 1015.92 1015.71 1015.61 1015.33 1014.78 1014.45 1013.95 1013.59 1013.30 1012.81 1012.85 1013.19 1013.64 1013.87 1014.06 1014.20 1014.18 1014.20 1014.37 1014.47 1014.79 1014.80 1015.09 1015.63
1017.17 1017.30 1017.57 1017.47 1017.00 1016.12 1015.23 1015.13 1015.20 1015.74 1016.02 1015.56 1015.74 1015.99 1015.90 1016.19 1016.81 1017.14 1017.19 1017.00 1016.58 1016.43 1016.06 1015.88 1015.87 1015.33 1015.08 1015.15 1014.60 1014.48 1014.87 1014.77 1014.86 1014.82 1014.69 1014.62 1014.74 1014.99 1015.26 1015.61 1015.69 1015.55 1015.49 1015.76
1017.13 1017.52 1017.65 1017.51 1016.94 1015.99 1014.83 1015.19 1015.41 1015.45 1015.63 1015.76 1016.04 1016.32 1016.59 1016.77 1016.95 1017.09 1017.34 1017.48 1017.66 1017.71 1017.62 1017.58 1017.34 1016.77 1016.24 1016.24 1016.35 1016.39 1016.16 1016.32 1016.07 1015.96 1015.68 1015.57 1015.71 1015.70 1015.73 1015.73 1015.87 1015.95 1016.12 1016.20
1017.29 1016.87 1017.01 1017.08 1016.20 1015.22 1014.75 1014.60 1014.56 1014.92 1015.51 1016.01 1016.19 1016.47 1016.62 1016.89 1017.11 1017.30 1017.43 1017.59 1017.68 1017.71 1017.76 1017.49 1017.27 1017.23 1018.09 1017.67 1017.24 1016.98 1017.15 1017.14 1016.55 1016.27 1016.62 1016.22 1016.40 1016.30 1016.57 1016.68 1016.87 1017.01 1017.09 1016.76
1016.79 1016.50 1016.53 1016.54 1015.59 1015.27 1015.06 1014.85 1014.64 1014.66 1015.03 1015.52 1015.83 1016.33 1016.65 1016.98 1017.22 1017.56 1017.91 1018.12 1018.30 1018.16 1017.71 1018.07 1018.65 1019.41 1018.72 1018.39 1018.50 1017.90 1017.53 1016.96 1017.22 1018.27 1018.02 1017.04 1017.09 1017.07 1017.16 1017.27 1017.15 1016.98 1017.11 1017.21
1016.55 1016.43 1016.08 1015.87 1015.49 1015.44 1015.07 1014.99 1015.01 1015.14 1015.21 1015.50 1015.67 1015.85 1016.17 1016.61 1017.13 1017.43 1017.67 1018.12 1018.45 1018.46 1018.45 1018.66 1018.66 1018.86 1018.87 1018.93 1019.19 1018.88 1018.25 1018.18 1017.93 1017.81 1018.38 1018.09 1018.08 1018.39 1018.26 1017.82 1017.50 1017.39 1017.27 1017.41
1015.42 1014.82 1015.06 1014.34 1013.59 1013.79 1013.96 1014.40 1014.83 1015.31 1015.52 1015.63 1015.86 1016.05 1016.04 1016.28 1016.64 1017.04 1017.51 1017.75 1017.87 1018.05 1018.41 1018.71 1018.98 1019.16 1019.31 1019.26 1019.19 1018.98 1019.24 1018.84 1018.73 1018.21 1018.36 1018.21 1018.36 1018.91 1019.06 1018.66 1018.02 1017.80 1018.08 1017.83
Thickness
5460 5455 5444 5443 5444 5452 5453 5447 5448 5467 5479 5478 5491 5507 5519 5518 5517 5520 5532 5536 5546 5553 5564 5567 5576 5578 5585 5589 5593 5609 5616 5624 5632 5637 5643 5644 5649 5655 5658 5665 5667 5672 5676 5678
5446 5445 5455 5456 5455 5453 5454 5450 5460 5472 5482 5474 5486 5515 5514 5522 5518 5517 5519 5523 5528 5534 5538 5546 5552 5557 5563 5576 5578 5592 5605 5612 5621 5628 5637 5646 5652 5651 5655 5661 5660 5665 5672 5673
5441 5457 5467 5462 5458 5454 5458 5450 5460 5464 5482 5479 5479 5493 5513 5524 5523 5521 5520 5519 5514 5519 5520 5521 5525 5535 5540 5552 5566 5573 5590 5602 5608 5619 5625 5635 5641 5648 5644 5652 5660 5662 5666 5672
5444 5460 5466 5465 5458 5460 5447 5471 5472 5468 5465 5444 5486 5490 5525 5527 5515 5515 5509 5509 5511 5509 5512 5513 5513 5519 5525 5534 5547 5558 5570 5582 5595 5608 5619 5630 5644 5651 5649 5652 5658 5662 5664 5667
5452 5461 5468 5466 5469 5468 5458 5474 5476 5479 5474 5475 5473 5472 5495 5505 5508 5511 5503 5505 5509 5514 5512 5510 5514 5520 5523 5527 5533 5542 5549 5562 5580 5596 5615 5628 5637 5650 5655 5653 5652 5649 5660 5662
5453 5466 5465 5467 5479 5481 5482 5483 5479 5484 5483 5468 5470 5466 5478 5498 5504 5504 5496 5508 5509 5512 5514 5513 5517 5520 5523 5526 5530 5534 5541 5552 5570 5588 5611 5626 5641 5642 5646 5653 5655 5654 5654 5656
5439 5454 5473 5477 5474 5478 5474 5480 5421 5442 5421 5458 5480 5489 5486 5499 5489 5491 5495 5507 5510 5512 5513 5514 5516 5518 5522 5525 5530 5534 5542 5551 5564 5588 5607 5625 5636 5640 5645 5649 5650 5647 5647 5650
5428 5448 5479 5478 5477 5479 5479 5472 5458 5452 5490 5502 5491 5499 5504 5490 5485 5489 5509 5514 5515 5507 5507 5512 5515 5519 5524 5532 5533 5538 5548 5557 5569 5584 5601 5611 5622 5637 5643 5646 5646 5649 5649 5649
5460 5456 5492 5490 5489 5483 5487 5495 5489 5496 5495 5505 5487 5505 5506 5499 5489 5489 5482 5491 5506 5512 5512 5514 5518 5522 5532 5542 5543 5551 5564 5571 5579 5592 5602 5615 5618 5628 5635 5636 5641 5644 5644 5644
5463 5465 5491 5495 5497 5492 5489 5489 5495 5496 5495 5489 5498 5496 5486 5487 5478 5476 5476 5484 5500 5515 5518 5520 5526 5536 5543 5556 5561 5568 5580 5582 5587 5596 5610 5616 5617 5617 5625 5628 5634 5637 5636 5636
5469 5464 5494 5502 5493 5493 5496 5498 5501 5501 5496 5501 5503 5493 5470 5469 5468 5465 5472 5498 5513 5518 5525 5525 5530 5539 5555 5565 5573 5583 5587 5592 5597 5601 5603 5613 5621 5620 5624 5623 5626 5631 5630 5630
5482 5477 5483 5493 5510 5512 5505 5496 5504 5501 5494 5477 5491 5495 5476 5474 5475 5465 5477 5500 5529 5533 5541 5539 5540 5557 5565 5576 5586 5593 5597 5597 5599 5604 5610 5618 5617 5625 5626 5624 5621 5621 5625 5624
5494 5476 5463 5496 5514 5510 5498 5500 5510 5511 5497 5482 5489 5484 5483 5480 5478 5477 5484 5511 5526 5541 5551 5557 5560 5573 5587 5586 5588 5588 5591 5596 5601 5612 5617 5615 5619 5624 5623 5620 5619 5617 5616 5615
5499 5490 5491 5487 5496 5498 5499 5497 5505 5499 5488 5489 5479 5480 5479 5483 5482 5483 5494 5509 5527 5538 5545 5558 5565 5574 5582 5583 5588 5591 5596 5601 5603 5605 5607 5605 5607 5609 5611 5610 5613 5613 5613 5610
5505 5486 5498 5496 5501 5498 5495 5495 5503 5493 5494 5482 5483 5483 5479 5477 5481 5488 5492 5509 5530 5538 5544 5559 5564 5572 5583 5586 5585 5590 5595 5593 5596 5594 5591 5592 5597 5603 5604 5607 5605 5606 5607 5607
5502 5499 5500 5498 5502 5504 5495 5499 5506 5505 5501 5494 5492 5486 5480 5482 5485 5491 5499 5510 5526 5532 5541 5552 5562 5562 5567 5572 5574 5577 5579 5582 5585 5580 5581 5583 5589 5593 5592 5591 5591 5595 5596 5596
5501 5494 5481 5498 5509 5510 5495 5499 5500 5502 5500 5499 5496 5487 5483 5483 5486 5492 5501 5509 5520 5532 5534 5540 5544 5550 5556 5556 5561 5567 5571 5576 5576 5577 5578 5579 5580 5580 5579 5578 5579 5580 5579 5580
5501 5496 5487 5486 5501 5491 5501 5512 5513 5504 5501 5502 5504 5500 5490 5490 5486 5492 5503 5509 5513 5522 5528 5532 5534 5541 5546 5549 5556 5562 5563 5566 5567 5566 5567 5568 5567 5566 5566 5568 5567 5567 5569 5568
5500 5495 5500 5495 5484 5500 5512 5513 5518 5511 5504 5501 5502 5499 5507 5500 5497 5500 5498 5502 5506 5510 5514 5518 5523 5527 5535 5544 5545 5549 5551 5553 5556 5556 5558 5556 5559 5561 5561 5561 5558 5558 5554 5554
5502 5496 5498 5497 5497 5509 5517 5518 5515 5523 5501 5509 5505 5499 5497 5509 5499 5486 5489 5495 5498 5500 5502 5505 5512 5516 5524 5530 5534 5540 5543 5542 5540 5539 5538 5538 5541 5542 5544 5546 5544 5545 5543 5540
5498 5496 5504 5501 5489 5504 5518 5521 5519 5505 5507 5511 5507 5502 5503 5500 5494 5494 5494 5495 5500 5502 5507 5509 5507 5514 5519 5520 5527 5529 5526 5529 5529 5531 5534 5535 5534 5533 5531 5529 5529 5531 5532 5530
5516 5504 5504 5499 5510 5509 5529 5526 5520 5519 5515 5513 5513 5509 5503 5500 5501 5501 5499 5498 5496 5496 5498 5498 5501 5509 5515 5517 5517 5516 5518 5516 5519 5521 5525 5526 5524 5524 5523 5523 5522 5520 5519 5517
5518 5522 5519 5513 5522 5528 5535 5536 5535 5526 5519 5516 5514 5511 5507 5507 5508 5506 5503 5502 5502 5502 5501 5507 5512 5511 5501 5507 5512 5516 5514 5510 5517 5518 5513 5518 5515 5514 5510 5508 5504 5501 5497 5498
5536 5528 5529 5533 5536 5534 5537 5538 5538 5538 5533 5525 5521 5515 5513 5512 5511 5509 5505 5503 5502 5505 5511 5508 5500 5490 5499 5500 5497 5507 5511 5515 5510 5497 5500 5510 5506 5503 5500 5495 5494 5491 5486 5481
5535 5536 5535 5535 5542 5540 5540 5540 5539 5538 5536 5535 5533 5530 5526 5521 5518 5515 5512 5507 5502 5502 5503 5498 5498 5491 5491 5489 5487 5490 5494 5496 5498 5496 5486 5487 5483 5476 5476 5477 5478 5474 5471 5466
5544 5550 5548 5554 5560 5559 5556 5550 5545 5540 5538 5537 5536 5534 5535 5531 5526 5522 5516 5512 5511 5509 5504 5500 5495 5491 5487 5487 5487 5488 5484 5487 5484 5486 5477 5477 5471 5460 5453 5452 5454 5451 5443 5441